N0JVW-13 Weather Reports


Display with metric or nautical units.
time (UTC)temp
F
wind
direction
speed
MPH
gust
MPH
rain 1hr
in
rain 24hr
in
rain mn
in
humidity
%
barometer
mb
20260510234525 65 8 0.0 2.0 0.00 0.00 0.00 37 1020.3
20260510234001 65 8 0.0 3.0 0.00 0.00 0.00 37 1020.1
20260510233547 65 8 0.0 3.0 0.00 0.00 0.00 36 1020.1
20260510233018 65 339 1.0 5.0 0.00 0.00 0.00 34 1020.2
20260510232558 66 30 2.0 5.0 0.00 0.00 0.00 35 1020.1
20260510232034 65 13 1.0 5.0 0.00 0.00 0.00 36 1020.2
20260510231514 65 19 1.0 5.0 0.00 0.00 0.00 35 1020.2
20260510231052 65 25 1.0 5.0 0.00 0.00 0.00 35 1020.4
20260510230527 65 352 1.0 5.0 0.00 0.00 0.00 34 1020.3
20260510230003 65 13 1.0 5.0 0.00 0.00 0.00 34 1020.3
20260510225544 66 358 2.0 5.0 0.00 0.00 0.00 34 1020.4
20260510225021 66 349 1.0 4.0 0.00 0.00 0.00 33 1020.4
20260510224600 66 28 0.0 6.0 0.00 0.00 0.00 36 1020.3
20260510224037 66 342 3.0 6.0 0.00 0.00 0.00 33 1020.5
20260510223515 66 351 2.0 5.0 0.00 0.00 0.00 33 1020.3
20260510223055 66 15 1.0 5.0 0.00 0.00 0.00 34 1020.2
20260510222534 66 339 1.0 4.0 0.00 0.00 0.00 34 1020.4
20260510222005 66 349 0.0 10.0 0.00 0.00 0.00 35 1020.5
20260510221551 66 333 4.0 10.0 0.00 0.00 0.00 33 1020.3
20260510221022 66 31 1.0 4.0 0.00 0.00 0.00 34 1020.1
20260510220606 66 338 0.0 7.0 0.00 0.00 0.00 36 1020.1
20260510220039 66 34 2.0 7.0 0.00 0.00 0.00 35 1020.0
20260510215515 66 34 2.0 6.0 0.00 0.00 0.00 34 1019.9
20260510215055 66 349 2.0 6.0 0.00 0.00 0.00 34 1020.0
20260510214532 66 330 2.0 8.0 0.00 0.00 0.00 34 1020.0
20260510214010 66 35 0.0 5.0 0.00 0.00 0.00 35 1020.0
20260510213552 66 13 0.0 7.0 0.00 0.00 0.00 35 1020.0
20260510213029 66 6 1.0 8.0 0.00 0.00 0.00 37 1020.0
20260510212502 66 30 2.0 5.0 0.00 0.00 0.00 36 1019.9
20260510212043 66 18 2.0 5.0 0.00 0.00 0.00 35 1020.0
20260510211521 65 345 0.0 5.0 0.00 0.00 0.00 38 1020.0
20260510211101 65 15 1.0 5.0 0.00 0.00 0.00 36 1020.1
20260510210539 65 356 1.0 6.0 0.00 0.00 0.00 36 1020.1
20260510210014 65 3 0.0 6.0 0.00 0.00 0.00 36 1020.1
20260510205551 65 337 1.0 6.0 0.00 0.00 0.00 35 1020.2
20260510205027 65 31 3.0 7.0 0.00 0.00 0.00 35 1020.2
20260510204506 65 345 1.0 10.0 0.00 0.00 0.00 35 1020.3
20260510204044 65 30 4.0 10.0 0.00 0.00 0.00 34 1020.4
20260510203520 65 342 0.0 5.0 0.00 0.00 0.00 36 1020.3
20260510203100 65 26 1.0 6.0 0.00 0.00 0.00 35 1020.3
20260510202535 65 4 2.0 6.0 0.00 0.00 0.00 36 1020.4
20260510202011 65 41 1.0 6.0 0.00 0.00 0.00 35 1020.4
20260510201556 65 348 1.0 4.0 0.00 0.00 0.00 35 1020.5
20260510201032 65 359 0.0 3.0 0.00 0.00 0.00 37 1020.6
20260510200504 65 334 0.0 3.0 0.00 0.00 0.00 37 1020.7
20260510200045 65 316 0.0 5.0 0.00 0.00 0.00 36 1020.7
20260510195519 65 342 2.0 5.0 0.00 0.00 0.00 35 1020.7
20260510195101 65 10 0.0 3.0 0.00 0.00 0.00 37 1020.8
20260510194542 65 15 0.0 3.0 0.00 0.00 0.00 38 1020.9
20260510194014 65 4 0.0 3.0 0.00 0.00 0.00 35 1020.8
20260510193556 65 339 0.0 4.0 0.00 0.00 0.00 35 1020.8
20260510193035 65 341 1.0 4.0 0.00 0.00 0.00 36 1020.9
20260510192514 65 17 0.0 4.0 0.00 0.00 0.00 36 1020.9
20260510192048 65 317 1.0 7.0 0.00 0.00 0.00 36 1020.8
20260510191523 65 38 2.0 7.0 0.00 0.00 0.00 35 1020.8
20260510191103 65 350 2.0 6.0 0.00 0.00 0.00 35 1020.7
20260510190539 65 347 0.0 6.0 0.00 0.00 0.00 37 1020.7
20260510190030 65 25 2.0 6.0 0.00 0.00 0.00 36 1020.7
20260510185557 65 27 2.0 6.0 0.00 0.00 0.00 36 1020.7
20260510185035 65 27 1.0 5.0 0.00 0.00 0.00 40 1020.7
20260510184511 64 10 1.0 6.0 0.00 0.00 0.00 36 1020.7
20260510184050 64 336 2.0 5.0 0.00 0.00 0.00 36 1020.7
20260510183529 64 350 1.0 6.0 0.00 0.00 0.00 35 1020.6
20260510183002 64 340 2.0 6.0 0.00 0.00 0.00 36 1020.6
20260510182544 64 325 2.0 5.0 0.00 0.00 0.00 36 1020.6
20260510182018 64 360 0.0 5.0 0.00 0.00 0.00 35 1020.9
20260510181559 64 24 0.0 6.0 0.00 0.00 0.00 35 1021.0
20260510181034 64 31 3.0 8.0 0.00 0.00 0.00 33 1020.9
20260510180510 64 355 2.0 8.0 0.00 0.00 0.00 35 1020.8
20260510180104 65 13 3.0 7.0 0.00 0.00 0.00 33 1020.6
20260510175528 64 355 2.0 6.0 0.00 0.00 0.00 35 1020.7
20260510175004 64 26 2.0 7.0 0.00 0.00 0.00 35 1020.8
20260510174545 64 349 0.0 7.0 0.00 0.00 0.00 35 1020.6
20260510174022 64 16 0.0 6.0 0.00 0.00 0.00 36 1020.6
20260510173602 64 339 3.0 7.0 0.00 0.00 0.00 34 1020.8
20260510173045 64 81 1.0 7.0 0.00 0.00 0.00 39 1020.8
20260510172513 63 321 1.0 6.0 0.00 0.00 0.00 38 1020.6
20260510172053 63 359 2.0 6.0 0.00 0.00 0.00 35 1020.8
20260510171531 63 338 2.0 4.0 0.00 0.00 0.00 36 1020.8
20260510171007 63 340 1.0 6.0 0.00 0.00 0.00 36 1020.8
20260510170548 63 330 1.0 6.0 0.00 0.00 0.00 36 1020.7
20260510170025 63 347 1.0 6.0 0.00 0.00 0.00 35 1020.7
20260510165503 63 14 2.0 7.0 0.00 0.00 0.00 36 1020.7
20260510165040 63 354 3.0 7.0 0.00 0.00 0.00 35 1020.6
20260510164519 63 352 2.0 8.0 0.00 0.00 0.00 37 1020.6
20260510164059 63 325 3.0 8.0 0.00 0.00 0.00 37 1020.5
20260510163535 62 28 2.0 10.0 0.00 0.00 0.00 38 1020.4
20260510163010 62 12 4.0 10.0 0.00 0.00 0.00 36 1020.4
20260510162551 62 26 2.0 9.0 0.00 0.00 0.00 37 1020.3
20260510162031 62 21 5.0 9.0 0.00 0.00 0.00 37 1020.4
20260510161503 62 338 2.0 8.0 0.00 0.00 0.00 40 1020.5
20260510161044 62 335 2.0 8.0 0.00 0.00 0.00 38 1020.5
20260510160521 62 352 2.0 5.0 0.00 0.00 0.00 39 1020.6
20260510160105 62 160 1.0 5.0 0.00 0.00 0.00 43 1020.6
20260510155537 61 17 1.0 6.0 0.00 0.00 0.00 41 1020.5
20260510155013 61 335 1.0 9.0 0.00 0.00 0.00 42 1020.5
20260510154555 61 354 2.0 9.0 0.00 0.00 0.00 42 1020.5
20260510154030 61 339 1.0 7.0 0.00 0.00 0.00 42 1020.5
20260510153506 60 330 0.0 7.0 0.00 0.00 0.00 45 1020.4
20260510153059 60 353 4.0 9.0 0.00 0.00 0.00 42 1020.3
20260510152522 59 349 3.0 9.0 0.00 0.00 0.00 44 1020.2
20260510152102 59 332 3.0 6.0 0.00 0.00 0.00 45 1020.2
20260510151539 59 5 2.0 6.0 0.00 0.00 0.00 45 1020.2
20260510151014 58 23 2.0 6.0 0.00 0.00 0.00 45 1020.1
20260510150555 58 351 2.0 4.0 0.00 0.00 0.00 48 1020.1
20260510150038 58 354 0.0 6.0 0.00 0.00 0.00 48 1020.0
20260510145507 57 349 1.0 6.0 0.00 0.00 0.00 48 1020.1
20260510145047 57 340 2.0 6.0 0.00 0.00 0.00 47 1020.2
20260510144529 57 347 2.0 6.0 0.00 0.00 0.00 50 1020.3
20260510144104 57 24 1.0 4.0 0.00 0.00 0.00 50 1020.3
20260510143540 57 339 0.0 4.0 0.00 0.00 0.00 49 1020.2
20260510143029 57 12 1.0 3.0 0.00 0.00 0.00 50 1020.3
20260510142558 56 356 1.0 5.0 0.00 0.00 0.00 49 1020.2
20260510142035 56 13 1.0 5.0 0.00 0.00 0.00 49 1020.1
20260510141510 56 339 0.0 4.0 0.00 0.00 0.00 50 1020.1
20260510141050 56 13 1.0 6.0 0.00 0.00 0.00 48 1020.0
20260510140527 56 28 2.0 6.0 0.00 0.00 0.00 47 1020.0
20260510140006 56 335 1.0 6.0 0.00 0.00 0.00 48 1019.9
20260510135544 56 31 1.0 6.0 0.00 0.00 0.00 49 1020.0
20260510135020 56 341 2.0 6.0 0.00 0.00 0.00 48 1019.9
20260510134601 56 350 1.0 6.0 0.00 0.00 0.00 49 1019.8
20260510134036 56 354 1.0 6.0 0.00 0.00 0.00 49 1019.7
20260510133512 55 38 2.0 6.0 0.00 0.00 0.00 48 1019.8
20260510133054 55 32 1.0 6.0 0.00 0.00 0.00 50 1019.7
20260510132531 55 40 2.0 6.0 0.00 0.00 0.00 50 1019.7
20260510132003 55 17 1.0 6.0 0.00 0.00 0.00 49 1019.6
20260510131553 55 40 1.0 6.0 0.00 0.00 0.00 49 1019.5
20260510131020 55 11 3.0 6.0 0.00 0.00 0.00 49 1019.4
20260510130602 55 338 2.0 5.0 0.00 0.00 0.00 48 1019.5
20260510130038 55 343 2.0 5.0 0.00 0.00 0.00 49 1019.5
20260510125515 55 2 0.0 3.0 0.00 0.00 0.00 49 1019.3
20260510125101 55 353 0.0 5.0 0.00 0.00 0.00 48 1019.1
20260510124534 55 344 1.0 6.0 0.00 0.00 0.00 47 1019.0
20260510124007 55 345 2.0 6.0 0.00 0.00 0.00 46 1018.8
20260510123548 55 340 1.0 5.0 0.00 0.00 0.00 47 1018.8
20260510123024 55 355 2.0 5.0 0.00 0.00 0.00 47 1018.7
20260510122601 55 23 1.0 4.0 0.00 0.00 0.00 47 1018.6
20260510122037 55 355 0.0 4.0 0.00 0.00 0.00 46 1018.5
20260510121517 55 359 2.0 6.0 0.00 0.00 0.00 46 1018.2
20260510121055 55 353 2.0 6.0 0.00 0.00 0.00 46 1017.9
20260510120529 55 1 1.0 5.0 0.00 0.00 0.00 46 1017.9
20260510120008 55 18 1.0 7.0 0.00 0.00 0.00 46 1017.8
20260510115545 56 357 2.0 7.0 0.00 0.00 0.00 45 1017.7
20260510115022 56 342 2.0 6.0 0.00 0.00 0.00 45 1017.8
20260510114604 56 342 2.0 6.0 0.00 0.00 0.00 46 1017.8
20260510114039 56 343 2.0 5.0 0.00 0.00 0.00 46 1017.6
20260510113515 56 348 1.0 5.0 0.00 0.00 0.00 47 1017.5
20260510113056 56 343 1.0 6.0 0.00 0.00 0.00 47 1017.4
20260510112533 56 334 2.0 6.0 0.00 0.00 0.00 46 1017.4
20260510112010 56 343 2.0 7.0 0.00 0.00 0.00 46 1017.5
20260510111551 56 349 2.0 7.0 0.00 0.00 0.00 47 1017.3
20260510111026 56 350 1.0 5.0 0.00 0.00 0.00 48 1017.3
20260510110502 56 62 2.0 7.0 0.00 0.00 0.00 48 1017.2
20260510110043 57 2 3.0 7.0 0.00 0.00 0.00 48 1017.1
20260510105519 57 337 3.0 5.0 0.00 0.00 0.00 48 1017.1
20260510105103 57 345 2.0 5.0 0.00 0.00 0.00 48 1017.1
20260510104536 57 328 2.0 4.0 0.00 0.00 0.00 48 1017.0
20260510104013 57 352 2.0 4.0 0.00 0.00 0.00 48 1016.9
20260510103552 57 22 2.0 4.0 0.00 0.00 0.00 48 1016.8
20260510103029 57 11 1.0 4.0 0.00 0.00 0.00 48 1016.9
20260510102504 57 6 1.0 5.0 0.00 0.00 0.00 48 1016.6
20260510102044 57 23 1.0 5.0 0.00 0.00 0.00 48 1016.5
20260510101519 58 341 1.0 5.0 0.00 0.00 0.00 48 1016.4
20260510101103 58 342 1.0 6.0 0.00 0.00 0.00 47 1016.4
20260510100537 58 12 2.0 6.0 0.00 0.00 0.00 47 1016.2
20260510100027 58 359 2.0 5.0 0.00 0.00 0.00 47 1016.2
20260510095553 58 1 2.0 5.0 0.00 0.00 0.00 47 1016.0
20260510095032 59 350 1.0 6.0 0.00 0.00 0.00 47 1016.1
20260510094506 59 354 1.0 6.0 0.00 0.00 0.00 47 1016.1
20260510094047 59 331 1.0 5.0 0.00 0.00 0.00 48 1015.8
20260510093523 59 351 2.0 5.0 0.00 0.00 0.00 48 1015.9
20260510093104 59 347 2.0 8.0 0.00 0.00 0.00 49 1015.8
20260510092540 59 356 3.0 8.0 0.00 0.00 0.00 49 1015.7
20260510092025 59 351 4.0 7.0 0.00 0.00 0.00 50 1015.7
20260510091604 59 345 3.0 7.0 0.00 0.00 0.00 52 1015.7
20260510091037 59 337 3.0 6.0 0.00 0.00 0.00 53 1015.4
20260510090515 60 6 2.0 5.0 0.00 0.00 0.00 54 1015.5
20260510085530 60 19 3.0 7.0 0.00 0.00 0.00 53 1015.7
20260510085005 60 1 2.0 8.0 0.00 0.00 0.00 53 1015.5
20260510084607 60 44 4.0 8.0 0.00 0.00 0.00 54 1015.5
20260510084026 60 7 2.0 7.0 0.00 0.00 0.00 56 1015.4
20260510083602 60 20 2.0 11.0 0.00 0.00 0.00 57 1015.4
20260510083039 60 332 3.0 11.0 0.00 0.00 0.00 57 1015.2
20260510082514 60 24 3.0 6.0 0.00 0.00 0.00 61 1015.1
20260510082055 60 354 3.0 6.0 0.00 0.00 0.00 63 1015.0
20260510081544 60 9 2.0 6.0 0.00 0.00 0.00 65 1014.9
20260510081009 60 25 2.0 4.0 0.00 0.00 0.00 67 1014.9
20260510080548 61 18 1.0 4.0 0.00 0.00 0.00 69 1015.0
20260510080028 61 11 0.0 3.0 0.00 0.00 0.00 69 1014.9
20260510075605 61 5 0.0 3.0 0.00 0.00 0.00 68 1014.9
20260510075041 61 359 0.0 4.0 0.00 0.00 0.00 67 1014.5
20260510074515 61 29 1.0 4.0 0.00 0.00 0.00 66 1014.4
20260510074058 61 359 1.0 4.0 0.00 0.00 0.00 66 1014.3
20260510073533 61 23 0.0 3.0 0.00 0.00 0.00 67 1014.4
20260510073009 62 13 0.0 2.0 0.00 0.00 0.00 66 1014.4
20260510072549 62 30 0.0 1.0 0.00 0.00 0.00 66 1014.3
20260510072027 62 30 0.0 2.0 0.00 0.00 0.00 65 1014.1
20260510071501 62 1 0.0 2.0 0.00 0.00 0.00 65 1014.0
20260510071040 62 356 0.0 1.0 0.00 0.00 0.00 64 1013.9
20260510070516 62 356 0.0 1.0 0.00 0.00 0.00 64 1013.9
20260510070058 63 356 0.0 1.0 0.00 0.00 0.00 63 1013.9
20260510065534 63 356 0.0 1.0 0.00 0.00 0.00 62 1013.6
20260510065014 63 356 0.0 1.0 0.00 0.00 0.00 61 1013.7
20260510064553 63 356 0.0 1.0 0.00 0.00 0.00 61 1013.7
20260510064026 63 356 0.0 1.0 0.00 0.00 0.00 61 1013.5
20260510063503 63 356 0.0 0.0 0.00 0.00 0.00 61 1013.4
20260510063048 63 356 0.0 1.0 0.00 0.00 0.00 60 1013.5
20260510062519 63 356 0.0 1.0 0.00 0.00 0.00 60 1013.7
20260510062100 64 356 0.0 0.0 0.00 0.00 0.00 60 1013.8
20260510061536 64 356 0.0 0.0 0.00 0.00 0.00 59 1013.9
20260510061012 64 356 0.0 1.0 0.00 0.00 0.00 59 1013.9
20260510060554 64 356 0.0 2.0 0.00 0.00 0.00 58 1013.8
20260510060030 64 356 0.0 2.0 0.00 0.00 0.00 57 1013.6
20260510055506 64 352 0.0 2.0 0.00 0.00 0.00 57 1013.5
20260510055050 64 352 0.0 2.0 0.00 0.00 0.00 57 1013.4
20260510054523 65 352 0.0 2.0 0.00 0.00 0.00 57 1013.2
20260510054102 65 352 0.0 2.0 0.00 0.00 0.00 57 1013.2
20260510053540 65 342 0.0 1.0 0.00 0.00 0.00 57 1013.4
20260510053014 65 342 0.0 1.0 0.00 0.00 0.00 56 1013.5
20260510052555 66 341 0.0 3.0 0.00 0.00 0.00 56 1013.5
20260510052031 66 325 0.0 3.0 0.00 0.00 0.00 53 1013.1
20260510051507 66 343 1.0 4.0 0.00 0.00 0.00 51 1013.0
20260510051151 66 328 0.0 5.0 0.00 0.00 0.00 51 1012.8
20260510050529 66 357 1.0 6.0 0.00 0.00 0.00 50 1012.5
20260510050111 67 340 1.0 6.0 0.00 0.00 0.00 51 1012.5
20260510045541 67 337 1.0 6.0 0.00 0.00 0.00 50 1012.1
20260510045018 67 319 1.0 6.0 0.00 0.00 0.00 50 1012.0
20260510044600 67 347 2.0 6.0 0.00 0.00 0.00 50 1011.9
20260510044031 67 357 0.0 5.0 0.00 0.00 0.00 50 1011.6
20260510043509 67 340 1.0 7.0 0.00 0.00 0.00 49 1011.5
20260510043103 67 10 1.0 7.0 0.00 0.00 0.00 49 1011.5
20260510042528 67 14 4.0 7.0 0.00 0.00 0.00 49 1011.6
20260510042002 67 340 3.0 6.0 0.00 0.00 0.00 50 1011.7
20260510041544 67 328 2.0 6.0 0.00 0.00 0.00 52 1011.7
20260510041021 67 333 1.0 4.0 0.00 0.00 0.00 56 1011.5
20260510040603 67 4 1.0 6.0 0.00 0.00 0.00 57 1011.6
20260510040036 67 334 2.0 7.0 0.00 0.00 0.00 59 1011.6
20260510035513 67 30 4.0 7.0 0.00 0.00 0.00 59 1011.5
20260510035055 67 8 2.0 5.0 0.00 0.00 0.00 62 1011.5
20260510034538 67 335 0.0 1.0 0.00 0.00 0.00 63 1011.5
20260510034007 68 25 0.0 0.0 0.00 0.00 0.00 59 1011.8
20260510033550 68 25 0.0 0.0 0.00 0.00 0.00 58 1012.0
20260510033022 68 25 0.0 0.0 0.00 0.00 0.00 56 1011.8
20260510032604 68 25 0.0 0.0 0.00 0.00 0.00 56 1011.6
20260510032040 67 25 0.0 0.0 0.00 0.00 0.00 56 1011.2
20260510031516 67 25 0.0 0.0 0.00 0.00 0.00 56 1011.1
20260510031058 67 25 0.0 0.0 0.00 0.00 0.00 55 1010.8
20260510030534 68 25 0.0 0.0 0.00 0.00 0.00 54 1010.8
20260510030008 68 25 0.0 0.0 0.00 0.00 0.00 54 1010.8
20260510025549 68 25 0.0 0.0 0.00 0.00 0.00 54 1010.6
20260510025025 68 25 0.0 0.0 0.00 0.00 0.00 53 1010.4
20260510024502 69 25 0.0 0.0 0.00 0.00 0.00 53 1010.4
20260510024042 69 25 0.0 0.0 0.00 0.00 0.00 53 1010.3
20260510023517 69 25 0.0 0.0 0.00 0.00 0.00 52 1010.1
20260510023058 69 25 0.0 0.0 0.00 0.00 0.00 51 1009.9
20260510022535 70 25 0.0 0.0 0.00 0.00 0.00 51 1009.8
20260510022011 70 25 0.0 0.0 0.00 0.00 0.00 51 1009.8
20260510021551 70 25 0.0 2.0 0.00 0.00 0.00 50 1009.7
20260510021027 71 25 0.0 2.0 0.00 0.00 0.00 49 1009.6
20260510020506 71 5 0.0 2.0 0.00 0.00 0.00 49 1009.6
20260510020048 71 352 1.0 3.0 0.00 0.00 0.00 49 1009.4
20260510015520 71 32 0.0 3.0 0.00 0.00 0.00 48 1009.5
20260510015101 71 6 0.0 3.0 0.00 0.00 0.00 49 1009.4
20260510014542 71 16 0.0 3.0 0.00 0.00 0.00 48 1009.3
20260510014015 72 358 0.0 4.0 0.00 0.00 0.00 48 1009.2
20260510013556 72 26 1.0 4.0 0.00 0.00 0.00 47 1009.1
20260510013031 72 44 1.0 4.0 0.00 0.00 0.00 47 1009.0
20260510012507 72 342 1.0 4.0 0.00 0.00 0.00 48 1009.0
20260510012050 72 15 0.0 2.0 0.00 0.00 0.00 48 1008.9
20260510011536 72 349 0.0 3.0 0.00 0.00 0.00 47 1008.9
20260510011105 73 20 0.0 3.0 0.00 0.00 0.00 47 1008.8
20260510010540 73 10 0.0 2.0 0.00 0.00 0.00 46 1008.8
20260510010018 73 10 0.0 2.0 0.00 0.00 0.00 46 1008.7
20260510005559 73 9 0.0 6.0 0.00 0.00 0.00 45 1008.6
20260510005036 74 9 2.0 6.0 0.00 0.00 0.00 44 1008.4
20260510004513 74 20 0.0 6.0 0.00 0.00 0.00 45 1008.4
20260510004053 74 41 0.0 6.0 0.00 0.00 0.00 44 1008.3
20260510003531 74 298 1.0 6.0 0.00 0.00 0.00 43 1008.3
20260510003008 75 343 0.0 4.0 0.00 0.00 0.00 43 1008.1
20260510002548 75 37 0.0 4.0 0.00 0.00 0.00 43 1007.9
20260510002024 75 15 1.0 4.0 0.00 0.00 0.00 43 1007.9
20260510001501 75 352 0.0 7.0 0.00 0.00 0.00 42 1007.8
20260510001042 76 9 3.0 7.0 0.00 0.00 0.00 41 1007.6
20260510000519 76 18 1.0 7.0 0.00 0.00 0.00 40 1007.6
20260510000107 76 7 1.0 7.0 0.00 0.00 0.00 40 1007.6
20260509235538 76 27 1.0 4.0 0.00 0.00 0.00 40 1007.6
20260509235015 76 330 0.0 6.0 0.00 0.00 0.00 40 1007.5